Flag for Russia Weather past 2 weeks in Barnaul, Russia

Now
21 °F

Clear.


Feels Like: 12 °F
Forecast: 13 / 22 °F
Wind: 8 mph from South

Location: Barnaul Airport

Current Time: Dec 22, 2014 at 9:04:33 PM

Latest Report: Dec 22, 2014 at 8:30 PM


Visibility: 10 mi

Pressure: 30.27 "Hg

Humidity: 68%

Dew point: 12 °F

Location of BarnaulLocation

Historic Weather in Barnaul — Graph

°F

Barnaul temperature yesterday

Maximum temperature yesterday: 21 °F (at 9:00 PM)
Minimum temperature yesterday: 3 °F (at 12:00 AM)
Average temperature yesterday: 12 °F

Past Weeks' High & Low Weather Summary

 TemperatureHumidityPressure
High25 °F (Dec 22, 12:30 PM)93% (Dec 7, 8:00 PM)30.92 "Hg (Dec 7, 8:00 PM)
Low-13 °F (Dec 8, 8:00 AM)56% (Dec 15, 12:00 PM)30.09 "Hg (Dec 7, 8:00 PM)
Average8 °F79%30.53 "Hg
* Reported Dec 7 8:00 PM — Dec 22 8:00 PM, Barnaul, Weather by CustomWeather, © 2014

Note: Actual official high and low records may vary slightly from our data, if they occured in-between our weather recording intervals... More about our weather records

Advertising

Barnaul weather history for previous 24 hours

 ConditionsComfort  
Time TempWeatherWind HumidityBarometerVisibility
8:00 PM
Dec 22
21 °FClear.6 mph68%30.27 "Hg10 mi
7:30 PM21 °FClear.10 mph68%30.24 "Hg10 mi
7:00 PM21 °FClear.8 mph68%30.24 "Hg10 mi
6:30 PM21 °FClear.8 mph68%30.27 "Hg10 mi
6:00 PM21 °FClear.8 mph68%30.24 "Hg10 mi
5:30 PM21 °FClear.8 mph68%30.24 "Hg10 mi
5:00 PM21 °FClear.8 mph68%30.24 "Hg10 mi
4:30 PM21 °FClear.8 mph68%30.24 "Hg10 mi
4:00 PM21 °FSunny.6 mph74%30.24 "Hg10 mi
3:30 PM21 °FSunny.8 mph74%30.24 "Hg10 mi
3:00 PM21 °FSunny.6 mph74%30.24 "Hg10 mi
2:30 PM23 °FSunny.6 mph74%30.21 "Hg10 mi
2:00 PM23 °FSunny.8 mph74%30.21 "Hg10 mi
1:30 PM23 °FSunny.8 mph74%30.21 "Hg10 mi
1:00 PM23 °FSunny.8 mph74%30.21 "Hg10 mi
12:30 PM25 °FSunny.8 mph74%30.21 "Hg10 mi
12:00 PM23 °FSunny.8 mph80%30.21 "Hg10 mi
11:30 AM23 °FSunny.8 mph74%30.21 "Hg10 mi
11:00 AM21 °FSunny.8 mph80%30.21 "Hg10 mi
10:30 AM21 °FSunny.10 mph74%30.21 "Hg10 mi
9:30 AM19 °FSunny.13 mph73%30.21 "Hg10 mi
9:00 AM18 °FSunny.13 mph79%30.18 "Hg10 mi
8:30 AM18 °FPartly cloudy.10 mph79%30.18 "HgN/A
8:00 AM18 °FPartly cloudy.10 mph79%30.18 "HgN/A
7:30 AM18 °FPartly cloudy.10 mph79%30.18 "HgN/A
7:00 AM18 °FPartly cloudy.8 mph79%30.18 "HgN/A
6:30 AM18 °FPartly cloudy.10 mph79%30.18 "HgN/A
6:00 AM18 °FPassing clouds.10 mph79%30.18 "HgN/A
5:30 AM18 °FPassing clouds.8 mph79%30.18 "HgN/A
5:00 AM18 °FPassing clouds.6 mph79%30.18 "HgN/A
4:30 AM19 °FPassing clouds.8 mph73%30.18 "HgN/A
3:30 AM19 °FPassing clouds.8 mph73%30.18 "HgN/A
2:30 AM19 °FPassing clouds.6 mph73%30.18 "HgN/A
2:00 AM19 °FPassing clouds.6 mph73%30.18 "HgN/A
1:30 AM19 °FPassing clouds.6 mph79%30.18 "HgN/A
1:00 AM21 °FPassing clouds.6 mph74%30.18 "HgN/A
12:30 AM21 °FPassing clouds.8 mph74%30.18 "HgN/A
12:00 AM21 °FPassing clouds.8 mph80%30.18 "HgN/A
11:30 PM
Dec 21
21 °FPassing clouds.8 mph80%30.18 "HgN/A
11:00 PM21 °FPassing clouds.8 mph80%30.18 "HgN/A
10:30 PM21 °FPassing clouds.8 mph80%30.21 "HgN/A
10:00 PM21 °FPassing clouds.8 mph80%30.21 "HgN/A
9:30 PM21 °FPassing clouds.6 mph80%30.21 "HgN/A
9:00 PM21 °FPassing clouds.8 mph80%30.21 "HgN/A
Weather by CustomWeather, © 2014

See weather overviewHow to use our weather pages